GW1364 Weather Reports


time (UTC)temp
C
wind
direction
speed
KPH
gust
KPH
rain 1hr
cm
rain 24hr
cm
rain mn
cm
humidity
%
barometer
mb
20260504050421 8 122 1.6 1.6 0.00 0.00 0.00 48 1016.8
20260504045918 7 123 0.0 0.0 0.00 0.00 0.00 50 1016.6
20260504045413 8 115 0.0 0.0 0.00 0.00 0.00 49 1016.8
20260504044910 8 115 0.0 0.0 0.00 0.00 0.00 48 1016.5
20260504044408 8 119 0.0 0.0 0.00 0.00 0.00 50 1016.5
20260504043905 8 118 0.0 0.0 0.00 0.00 0.00 52 1016.4
20260504043401 8 119 0.0 0.0 0.00 0.00 0.00 51 1016.2
20260504042859 7 122 0.0 0.0 0.00 0.00 0.00 52 1016.2
20260504042355 7 112 0.0 0.0 0.00 0.00 0.00 54 1016.4
20260504041851 7 99 0.0 1.6 0.00 0.00 0.00 54 1016.2
20260504041348 7 101 0.0 0.0 0.00 0.00 0.00 55 1016.4
20260504040844 7 101 0.0 0.0 0.00 0.00 0.00 56 1016.2
20260504040343 7 113 0.0 0.0 0.00 0.00 0.00 54 1016.4
20260504035838 7 113 0.0 0.0 0.00 0.00 0.00 54 1016.2
20260504035337 7 111 0.0 0.0 0.00 0.00 0.00 55 1016.4
20260504034832 7 121 0.0 0.0 0.00 0.00 0.00 55 1016.0
20260504034330 7 100 0.0 0.0 0.00 0.00 0.00 56 1016.4
20260504033827 7 112 0.0 0.0 0.00 0.00 0.00 55 1016.4
20260504033325 7 104 0.0 0.0 0.00 0.00 0.00 55 1016.4
20260504032821 7 119 0.0 0.0 0.00 0.00 0.00 53 1016.5
20260504032319 7 116 0.0 0.0 0.00 0.00 0.00 52 1016.2
20260504031815 7 116 0.0 0.0 0.00 0.00 0.00 51 1016.1
20260504031313 7 106 0.0 0.0 0.00 0.00 0.00 51 1016.2
20260504030809 7 113 0.0 0.0 0.00 0.00 0.00 52 1016.4
20260504030306 7 104 0.0 0.0 0.00 0.00 0.00 54 1016.5
20260504025801 7 107 0.0 0.0 0.00 0.00 0.00 51 1016.2
20260504025259 7 114 0.0 0.0 0.00 0.00 0.00 47 1016.2
20260504024755 7 114 0.0 0.0 0.00 0.00 0.00 48 1016.4
20260504024252 8 110 0.0 0.0 0.00 0.00 0.00 50 1016.4
20260504023749 7 115 0.0 0.0 0.00 0.00 0.00 47 1016.1
20260504023246 7 118 0.0 0.0 0.00 0.00 0.00 47 1016.4
20260504022742 7 119 0.0 1.6 0.00 0.00 0.00 49 1016.2
20260504022238 8 97 0.0 1.6 0.00 0.00 0.00 48 1016.2
20260504021735 8 123 0.0 0.0 0.00 0.00 0.00 45 1016.1
20260504021233 8 109 0.0 0.0 0.00 0.00 0.00 46 1016.0
20260504020729 8 124 0.0 0.0 0.00 0.00 0.00 45 1016.4
20260504020225 8 117 0.0 0.0 0.00 0.00 0.00 44 1016.2
20260504015722 8 112 0.0 0.0 0.00 0.00 0.00 44 1016.1
20260504015218 8 119 0.0 0.0 0.00 0.00 0.00 43 1015.9
20260504014714 9 121 0.0 0.0 0.00 0.00 0.00 41 1015.8
20260504014211 9 116 1.6 1.6 0.00 0.00 0.00 40 1015.9
20260504013709 10 134 0.0 0.0 0.00 0.00 0.00 40 1015.7
20260504013206 10 155 1.6 3.2 0.00 0.00 0.00 37 1016.0
20260504012703 10 110 1.6 1.6 0.00 0.00 0.00 37 1015.8
20260504012201 10 142 0.0 1.6 0.00 0.00 0.00 36 1015.6
20260504011658 10 144 1.6 1.6 0.00 0.00 0.00 36 1015.5
20260504011154 10 121 0.0 0.0 0.00 0.00 0.00 36 1015.6
20260504010650 10 127 1.6 1.6 0.00 0.00 0.00 35 1015.6
20260504010146 10 134 1.6 3.2 0.00 0.00 0.00 36 1015.5
20260504005643 10 191 0.0 1.6 0.00 0.00 0.00 36 1015.6
20260504005139 11 183 1.6 1.6 0.00 0.00 0.00 35 1015.5
20260504004638 11 126 0.0 1.6 0.00 0.00 0.00 35 1015.5
20260504004134 11 191 1.6 3.2 0.00 0.00 0.00 35 1015.4
20260504003631 11 111 6.4 9.7 0.00 0.00 0.00 35 1015.5
20260504003128 11 127 1.6 1.6 0.00 0.00 0.00 34 1015.4
20260504002624 11 107 3.2 4.8 0.00 0.00 0.00 34 1015.5
20260504002122 11 178 4.8 6.4 0.00 0.00 0.00 34 1015.4
20260504001620 11 217 4.8 6.4 0.00 0.00 0.00 33 1015.3
20260504001115 12 119 1.6 1.6 0.00 0.00 0.00 33 1015.4
20260504000613 12 206 8.0 9.7 0.00 0.00 0.00 33 1015.4
20260504000110 12 207 3.2 4.8 0.00 0.00 0.00 33 1015.5
20260503235608 12 227 6.4 9.7 0.00 0.00 0.00 32 1015.5
20260503235104 12 126 4.8 6.4 0.00 0.00 0.00 32 1015.3
20260503234602 13 225 8.0 9.7 0.00 0.00 0.00 31 1015.4
20260503234100 13 207 6.4 6.4 0.00 0.00 0.00 31 1015.5
20260503233556 13 205 6.4 6.4 0.00 0.00 0.00 31 1015.4
20260503233052 13 176 6.4 6.4 0.00 0.00 0.00 30 1015.5
20260503232549 14 196 6.4 9.7 0.00 0.00 0.00 31 1015.4
20260503232047 14 190 3.2 3.2 0.00 0.00 0.00 31 1015.4
20260503231545 14 289 6.4 6.4 0.00 0.00 0.00 29 1015.1
20260503231041 14 237 6.4 11.3 0.00 0.00 0.00 30 1015.1
20260503230537 14 209 6.4 6.4 0.00 0.00 0.00 28 1015.1
20260503230035 15 213 6.4 11.3 0.00 0.00 0.00 28 1015.1
20260503225532 15 234 6.4 6.4 0.00 0.00 0.00 30 1015.0
20260503225027 15 239 9.7 12.9 0.00 0.00 0.00 27 1015.0
20260503224525 15 238 6.4 6.4 0.00 0.00 0.00 30 1015.1
20260503224022 15 205 6.4 9.7 0.00 0.00 0.00 28 1015.1
20260503223520 15 214 11.3 14.5 0.00 0.00 0.00 27 1015.0
20260503223015 15 241 4.8 4.8 0.00 0.00 0.00 27 1015.0
20260503222514 15 295 6.4 9.7 0.00 0.00 0.00 28 1015.1
20260503222012 15 252 8.0 9.7 0.00 0.00 0.00 26 1015.2
20260503221510 15 233 12.9 14.5 0.00 0.00 0.00 26 1015.2
20260503221007 15 238 6.4 6.4 0.00 0.00 0.00 27 1015.2
20260503220503 15 228 6.4 6.4 0.00 0.00 0.00 28 1015.3
20260503215959 15 232 9.7 11.3 0.00 0.00 0.00 27 1015.2
20260503215456 15 159 1.6 1.6 0.00 0.00 0.00 27 1015.1
20260503214954 15 223 9.7 11.3 0.00 0.00 0.00 29 1015.1
20260503214452 15 223 12.9 16.1 0.00 0.00 0.00 27 1015.2
20260503213949 15 269 14.5 16.1 0.00 0.00 0.00 27 1015.1
20260503213447 15 258 8.0 9.7 0.00 0.00 0.00 28 1015.2
20260503212943 16 261 8.0 9.7 0.00 0.00 0.00 27 1015.2
20260503212441 15 128 3.2 4.8 0.00 0.00 0.00 31 1015.3
20260503211938 15 253 6.4 9.7 0.00 0.00 0.00 29 1015.4
20260503211435 15 235 8.0 11.3 0.00 0.00 0.00 28 1015.5
20260503210930 15 222 9.7 11.3 0.00 0.00 0.00 30 1015.2
20260503210427 15 198 9.7 11.3 0.00 0.00 0.00 30 1015.3
20260503205922 15 249 9.7 11.3 0.00 0.00 0.00 29 1015.4
20260503205419 15 199 6.4 9.7 0.00 0.00 0.00 30 1015.4
20260503204915 15 220 6.4 9.7 0.00 0.00 0.00 29 1015.4
20260503204413 15 196 3.2 4.8 0.00 0.00 0.00 30 1015.4
20260503203910 15 231 6.4 9.7 0.00 0.00 0.00 27 1015.5
20260503203407 15 196 3.2 3.2 0.00 0.00 0.00 29 1015.7
20260503202904 15 81 3.2 4.8 0.00 0.00 0.00 31 1015.8
20260503202402 15 224 6.4 9.7 0.00 0.00 0.00 32 1015.9
20260503201900 15 205 6.4 6.4 0.00 0.00 0.00 30 1015.8
20260503201357 15 260 9.7 11.3 0.00 0.00 0.00 31 1015.8
20260503200855 15 263 11.3 16.1 0.00 0.00 0.00 30 1015.8
20260503200350 14 326 4.8 6.4 0.00 0.00 0.00 26 1015.8
20260503195848 15 218 19.3 24.1 0.00 0.00 0.00 27 1015.7
20260503195344 15 249 8.0 11.3 0.00 0.00 0.00 28 1016.1
20260503194841 15 245 11.3 12.9 0.00 0.00 0.00 26 1016.4
20260503194337 15 268 6.4 11.3 0.00 0.00 0.00 27 1016.4
20260503193834 15 338 8.0 11.3 0.00 0.00 0.00 28 1016.2
20260503193330 15 211 4.8 6.4 0.00 0.00 0.00 30 1016.2
20260503192826 14 316 6.4 6.4 0.00 0.00 0.00 31 1016.2
20260503192321 13 242 4.8 9.7 0.00 0.00 0.00 31 1016.4
20260503191818 13 225 16.1 20.9 0.00 0.00 0.00 31 1016.4
20260503191315 13 246 14.5 14.5 0.00 0.00 0.00 28 1016.4
20260503190811 13 327 9.7 14.5 0.00 0.00 0.00 30 1016.6
20260503190309 13 354 6.4 9.7 0.00 0.00 0.00 34 1016.8
20260503185806 13 255 14.5 17.7 0.00 0.00 0.00 32 1016.8
20260503185301 13 339 8.0 12.9 0.00 0.00 0.00 35 1017.0
20260503184801 13 224 11.3 12.9 0.00 0.00 0.00 33 1016.8
20260503184258 13 220 14.5 20.9 0.00 0.00 0.00 31 1017.0
20260503183754 13 283 8.0 14.5 0.00 0.00 0.00 35 1017.1
20260503183252 13 271 11.3 14.5 0.00 0.00 0.00 32 1017.1
20260503182749 13 259 11.3 14.5 0.00 0.00 0.00 31 1017.1
20260503182248 12 232 14.5 17.7 0.00 0.00 0.00 33 1017.0
20260503181744 12 232 16.1 17.7 0.00 0.00 0.00 33 1017.1
20260503181241 12 206 9.7 11.3 0.00 0.00 0.00 32 1017.3
20260503180737 12 218 14.5 17.7 0.00 0.00 0.00 31 1017.2
20260503180236 12 212 4.8 9.7 0.00 0.00 0.00 35 1017.2
20260503175732 12 203 4.8 4.8 0.00 0.00 0.00 36 1017.4
20260503175230 12 242 11.3 14.5 0.00 0.00 0.00 34 1017.3
20260503174726 12 18 3.2 4.8 0.00 0.00 0.00 33 1017.4
20260503174224 12 215 14.5 16.1 0.00 0.00 0.00 37 1017.4
20260503173719 11 202 4.8 4.8 0.00 0.00 0.00 37 1017.6
20260503173215 12 213 12.9 14.5 0.00 0.00 0.00 34 1017.7
20260503172712 11 131 3.2 6.4 0.00 0.00 0.00 37 1017.6
20260503172209 12 225 8.0 9.7 0.00 0.00 0.00 33 1017.7
20260503171705 12 62 3.2 3.2 0.00 0.00 0.00 40 1017.7
20260503171203 11 241 9.7 14.5 0.00 0.00 0.00 36 1017.6
20260503170659 11 137 3.2 4.8 0.00 0.00 0.00 36 1018.0
20260503170157 11 218 14.5 20.9 0.00 0.00 0.00 36 1018.0
20260503160118 9 351 11.3 14.5 0.00 0.00 0.00 41 1018.8
20260503150548 8 232 3.2 4.8 0.00 0.00 0.00 45 1018.9
20260503130938 5 326 11.3 14.5 0.00 0.00 0.00 49 1018.7
20260503130436 5 347 11.3 12.9 0.00 0.00 0.00 50 1018.8
20260503110331 0 120 0.0 0.0 0.00 0.00 0.00 69 1017.9
20260503100257 1 105 0.0 0.0 0.00 0.00 0.00 64 1016.4
20260503090223 1 101 0.0 0.0 0.00 0.00 0.00 66 1016.0
20260503081150 1 198 3.2 3.2 0.00 0.00 0.00 68 1015.6
20260503080646 1 195 3.2 4.8 0.00 0.00 0.00 71 1015.6
20260503080143 0 269 4.8 4.8 0.00 0.00 0.00 76 1015.6
20260503072620 0 121 0.0 0.0 0.00 0.00 0.00 80 1015.3
20260503072117 0 108 0.0 0.0 0.00 0.00 0.00 79 1015.2
20260503071614 0 115 0.0 0.0 0.00 0.00 0.00 80 1015.3
20260503071111 0 76 1.6 1.6 0.00 0.00 0.00 79 1015.3
20260503070608 0 120 0.0 0.0 0.00 0.00 0.00 80 1015.1
20260503070106 0 92 0.0 0.0 0.00 0.00 0.00 79 1015.4
20260503055026 0 118 0.0 0.0 0.00 0.00 0.00 77 1015.3
20260503054522 0 109 0.0 0.0 0.00 0.00 0.00 76 1015.3
20260503054020 0 119 0.0 0.0 0.00 0.00 0.00 76 1015.2
20260503053517 0 116 0.0 0.0 0.00 0.00 0.00 77 1015.2
20260503053015 0 123 0.0 0.0 0.00 0.00 0.00 76 1015.2
20260503052511 0 99 0.0 0.0 0.00 0.00 0.00 77 1015.3
20260503052008 0 88 1.6 1.6 0.00 0.00 0.00 75 1015.1
20260503051503 1 47 1.6 3.2 0.00 0.00 0.00 72 1014.9
20260503051001 1 128 1.6 1.6 0.00 0.00 0.00 73 1015.0